HAWK-3C

导读

HAWK-3C是美国发射的一颗低轨小卫星,于2021年6月30日成功发射,一同搭载发射的还有星链卫星及数十颗其他商用小卫星。该卫星运行在平均高度约398公里的近地轨道,轨道周期约92.4分钟。它属于HAWK系列卫星组网的一部分,主要用于技术验证,为美国新型航天技术的空间测试提供支持,目前已稳定在轨运行超过四年半。

基本信息
目录编号:
48948
目录名称:
HAWK-3C
国际标识:
2021-059BX
轨道中心:
EARTH
卫星名称:
HAWK-3C
卫星全名:
--
卫星状态:
在轨 (已飞行1899 天)
发射日期:
2021-06-30 UTC
国别 :
美国 (US)
星等 :
--
该卫星已列入 空间交会检测服务 Space Conjunction Data Service (SCDS) ,当前飞行风险评估等级: 无高风险
轨道信息
数据来源 国际轨道数据
星历时间: 2026-09-11T09:36:36+0800
14小时前
查看轨道信息
半长轴: 6716.845km
偏心率: 0.0004066
轨道倾角: 97.666°
近地点辐角 23.342°
升交点赤经 105.186°
平近点角 336.803°
近地点: 335.976km
远地点: 341.44km
周期: 91.308分钟
每日圈数: 15.77084
详细信息
使用方式:
暂无
2D轨道图
3D轨道图
轨道高度分析图
轨道倾角分析图
轨道综合分析图
查看轨道综合分析图
与全量物体交会距离演化趋势
与全量物体交会风险概率演化趋势